Terug naar catalogus

EXPRESS AM-11

ActiefCommunicatieGEO
NORAD 28234·PAYLOAD·🇷🇺 Russia

Gelanceerd Apr 26, 2004 vanaf Baikonur Cosmodrome

Loading…

TLE

VersSource: Space-Track

Epoch: Sep 14, 2026, 03:28 UTC

1 28234U 04015A   26257.14447038 -.00000246  00000-0  00000-0 0  9995
2 28234  13.1035  22.6287 0006210 280.4205  86.9331  0.99239048 81307

Volg EXPRESS AM-11 in realtime met AllMySat

Download on the App Store